Flag for French Polynesia Weather past 2 weeks in Gambier Islands, French Polynesia

Now
68 °F

Light rain. Overcast.


Feels Like: 68 °F
Forecast: 69 / 72 °F
Wind: 6 mph from West

Location: Rikitea

Current Time: Aug 3, 2015 at 5:26:15 PM

Latest Report: Aug 3, 2015 at 4:00 PM


Visibility: 4 mi

Pressure: 29.78 "Hg

Humidity: 94%

Dew point: 66 °F

Location of Gambier IslandsLocation

Historic Weather in Gambier Islands — Graph

°F

Gambier Islands temperature yesterday

Maximum temperature yesterday: 74 °F (at 11:00 AM)
Minimum temperature yesterday: 68 °F (at 6:00 AM)
Average temperature yesterday: 71 °F

Past Weeks' High & Low Weather Summary

 TemperatureHumidityPressure
High78 °F (Jul 26, 12:00 PM)100% (Jul 20, 6:00 AM)30.22 "Hg (Jul 20, 6:00 AM)
Low67 °F (Jul 23, 4:00 AM)64% (Jul 31, 11:00 AM)29.72 "Hg (Aug 1, 4:00 PM)
Average72 °F87%29.97 "Hg
* Reported Jul 19 4:00 PM — Aug 3 4:00 PM, Gambier Islands, Weather by CustomWeather, © 2015

Note: Actual official high and low records may vary slightly from our data, if they occured in-between our weather recording intervals... More about our weather records

Advertising

Gambier Islands weather history for previous 24 hours

 ConditionsComfort  
Time TempWeatherWind HumidityBarometerVisibility
4:00 PM
Mon, Aug 3
68 °FLight rain. Overcast.6 mph94%29.78 "Hg4 mi
3:00 PM73 °FOvercast.5 mph70%29.76 "Hg9 mi
2:00 PM73 °FOvercast.5 mph69%29.76 "Hg16 mi
1:00 PM75 °FOvercast.5 mph68%29.77 "Hg19 mi
11:00 AM74 °FOvercast.7 mph71%29.80 "Hg19 mi
10:00 AM74 °FOvercast.7 mph72%29.81 "Hg19 mi
9:00 AM74 °FPartly sunny.7 mph73%29.80 "Hg25 mi
8:00 AM73 °FScattered clouds.3 mph75%29.78 "Hg25 mi
7:00 AM71 °FPartly sunny.5 mph74%29.76 "Hg19 mi
6:00 AM71 °FScattered clouds.3 mph73%29.76 "Hg19 mi
5:00 AM71 °FMild.3 mph76%29.75 "HgN/A
4:00 AM71 °FMild.6 mph72%29.73 "HgN/A
3:00 AM72 °FMild.3 mph71%29.74 "HgN/A
2:00 AM72 °FMild.9 mph73%29.75 "HgN/A
1:00 AM71 °FMild.3 mph77%29.78 "HgN/A
12:00 AM71 °FMild.6 mph79%29.77 "HgN/A
11:00 PM
Sun, Aug 2
71 °FMild.6 mph81%29.77 "HgN/A
10:00 PM71 °FMild.3 mph83%29.78 "HgN/A
9:00 PM72 °FMild.5 mph80%29.78 "HgN/A
8:00 PM71 °FMild.3 mph82%29.78 "HgN/A
6:00 PM71 °FMild.3 mph83%29.75 "HgN/A
5:00 PM71 °FMild.3 mph83%29.74 "HgN/A
Weather by CustomWeather, © 2015

See weather overviewHow to use our weather pages